Faribault, MN

12:10 PM CDT on June 26, 2017 (GMT -0500)
Faribault Municipal

Weather History for KFBL - September, 2013

Change the Weather History Date:

Thursday, September 5, 2013

  Actual Average Record
Temperature  
Mean Temperature 72 °F -  
Max Temperature 84 °F 77 °F 96 °F (1960)
Min Temperature 60 °F 52 °F 35 °F (1962)
Cooling Degree Days 7    
Growing Degree Days 22 (Base 50)    
Moisture  
Dew Point 65 °F    
Average Humidity 79    
Maximum Humidity 94    
Minimum Humidity 58    
Precipitation  
Precipitation 0.00 in - - ()
Sea Level Pressure  
Sea Level Pressure 30.18 in    
Wind  
Wind Speed 4 mph (East)    
Max Wind Speed 12 mph    
Max Gust Speed -    
Visibility 10 miles    
Events      
Averages and records for this station are not official NWS values.
T = Trace of Precipitation, MM = Missing Value Source: NWS Daily Summary

Daily Weather History Graph

Daily Weather History Graph

Search for Another Location

Airport or City:

Trip Planner

Search our weather history database for the weather conditions in past years. The results will help you decide how hot, cold, wet, or windy it might be!

Date:

Astronomy

Sep. 05, 2013 Rise Set
Actual Time 6:41 AM CDT 7:41 PM CDT
Civil Twilight 6:11 AM CDT 8:11 PM CDT
Nautical Twilight 5:35 AM CDT 8:46 PM CDT
Astronomical Twilight 4:58 AM CDT 9:23 PM CDT
Moon 6:55 AM CDT (9/5) 7:30 PM CDT (9/5)
Length of Visible Light 13h 59m
Length of Day
13h 00m
New Moon, 0% of the Moon is Illuminated
Sep 5
New Moon
Sep 12
First Quarter
Sep 19
Full
Sep 26
Last Quarter
Oct 4
New

Hourly Weather History & Observations

Time (CDT) Temp. Heat Index Dew Point Humidity Pressure Visibility Wind Dir Wind Speed Gust Speed Precip Events Conditions
12:14 AM 64.4 °F - 62.6 °F 94% 30.16 in 10.0 mi Calm Calm - N/A   Clear
12:34 AM 64.4 °F - 62.6 °F 94% 30.16 in 10.0 mi Calm Calm - N/A   Clear
12:54 AM 64.4 °F - 62.6 °F 94% 30.17 in 10.0 mi NNE 4.6 mph - N/A   Clear
1:14 AM 64.4 °F - 62.6 °F 94% 30.17 in 10.0 mi NNE 4.6 mph - N/A   Clear
1:34 AM 64.4 °F - 62.6 °F 94% 30.17 in 10.0 mi Calm Calm - N/A   Clear
1:54 AM 62.6 °F - 60.8 °F 94% 30.17 in 10.0 mi NNE 3.5 mph - N/A   Clear
2:14 AM 62.6 °F - 60.8 °F 94% 30.17 in 10.0 mi Calm Calm - N/A   Clear
2:34 AM 62.6 °F - 60.8 °F 94% 30.17 in 10.0 mi Calm Calm - N/A   Clear
2:54 AM 62.6 °F - 60.8 °F 94% 30.18 in 10.0 mi Calm Calm - N/A   Clear
3:14 AM 62.6 °F - 60.8 °F 94% 30.18 in 10.0 mi Calm Calm - N/A   Clear
3:33 AM 62.6 °F - 60.8 °F 94% 30.18 in 10.0 mi Calm Calm - N/A   Mostly Cloudy
3:54 AM 62.6 °F - 60.8 °F 94% 30.18 in 10.0 mi Calm Calm - N/A   Mostly Cloudy
4:14 AM 62.6 °F - 59.0 °F 88% 30.18 in 10.0 mi NE 3.5 mph - N/A   Scattered Clouds
4:34 AM 62.6 °F - 59.0 °F 88% 30.18 in 10.0 mi Calm Calm - N/A   Clear
4:54 AM 62.6 °F - 59.0 °F 88% 30.19 in 10.0 mi Calm Calm - N/A   Clear
5:14 AM 60.8 °F - 57.2 °F 88% 30.18 in 10.0 mi NE 3.5 mph - N/A   Clear
5:34 AM 60.8 °F - 57.2 °F 88% 30.18 in 10.0 mi Calm Calm - N/A   Clear
5:54 AM 62.6 °F - 57.2 °F 82% 30.19 in 10.0 mi Calm Calm - N/A   Mostly Cloudy
6:14 AM 60.8 °F - 57.2 °F 88% 30.20 in 10.0 mi Calm Calm - N/A   Overcast
6:34 AM 62.6 °F - 57.2 °F 82% 30.20 in 10.0 mi Calm Calm - N/A   Overcast
6:53 AM 62.6 °F - 57.2 °F 82% 30.21 in 10.0 mi NE 4.6 mph - N/A   Overcast
7:14 AM 62.6 °F - 57.2 °F 82% 30.21 in 10.0 mi Calm Calm - N/A   Overcast
7:34 AM 62.6 °F - 57.2 °F 82% 30.22 in 10.0 mi Calm Calm - N/A   Mostly Cloudy
7:53 AM 62.6 °F - 57.2 °F 82% 30.22 in 10.0 mi Calm Calm - N/A   Mostly Cloudy
8:14 AM 62.6 °F - 57.2 °F 82% 30.22 in 10.0 mi ENE 3.5 mph - N/A   Scattered Clouds
8:34 AM 64.4 °F - 59.0 °F 83% 30.21 in 10.0 mi East 4.6 mph - N/A   Clear
8:54 AM 66.2 °F - 59.0 °F 78% 30.21 in 10.0 mi East 4.6 mph - N/A   Clear
9:14 AM 68.0 °F - 60.8 °F 78% 30.21 in 10.0 mi East 4.6 mph - N/A   Clear
9:33 AM 69.8 °F - 60.8 °F 73% 30.21 in 10.0 mi ENE 6.9 mph - N/A   Clear
9:54 AM 71.6 °F - 62.6 °F 73% 30.21 in 10.0 mi East 5.8 mph - N/A   Mostly Cloudy
10:14 AM 73.4 °F - 62.6 °F 69% 30.22 in 10.0 mi East 4.6 mph - N/A   Mostly Cloudy
10:33 AM 73.4 °F - 64.4 °F 73% 30.22 in 10.0 mi East 5.8 mph - N/A   Mostly Cloudy
10:54 AM 75.2 °F - 64.4 °F 69% 30.22 in 10.0 mi East 3.5 mph - N/A   Scattered Clouds
11:14 AM 77.0 °F - 66.2 °F 69% 30.22 in 10.0 mi East 6.9 mph - N/A   Scattered Clouds
11:34 AM 78.8 °F - 66.2 °F 65% 30.22 in 10.0 mi SE 6.9 mph - N/A   Clear
11:54 AM 78.8 °F - 66.2 °F 65% 30.22 in 10.0 mi East 8.1 mph - N/A   Mostly Cloudy
12:13 PM 78.8 °F - 66.2 °F 65% 30.22 in 10.0 mi East 5.8 mph - N/A   Mostly Cloudy
12:34 PM 80.6 °F 82.7 °F 66.2 °F 61% 30.22 in 10.0 mi East 5.8 mph - N/A   Overcast
12:54 PM 80.6 °F 82.7 °F 66.2 °F 61% 30.21 in 10.0 mi ESE 6.9 mph - N/A   Mostly Cloudy
1:13 PM 82.4 °F 84.6 °F 66.2 °F 58% 30.21 in 10.0 mi SE 9.2 mph - N/A   Mostly Cloudy
1:34 PM 80.6 °F 82.7 °F 66.2 °F 61% 30.20 in 10.0 mi ESE 5.8 mph - N/A   Clear
1:54 PM 82.4 °F 85.4 °F 68.0 °F 62% 30.20 in 10.0 mi ESE 6.9 mph - N/A   Clear
2:13 PM 82.4 °F 85.4 °F 68.0 °F 62% 30.19 in 10.0 mi SE 6.9 mph - N/A   Clear
2:34 PM 84.2 °F 88.4 °F 69.8 °F 62% 30.18 in 10.0 mi ENE 5.8 mph - N/A   Clear
2:54 PM 84.2 °F 88.4 °F 69.8 °F 62% 30.17 in 10.0 mi East 6.9 mph - N/A   Scattered Clouds
3:14 PM 82.4 °F 86.3 °F 69.8 °F 66% 30.17 in 10.0 mi ESE 8.1 mph - N/A   Scattered Clouds
3:34 PM 82.4 °F 86.3 °F 69.8 °F 66% 30.17 in 10.0 mi East 8.1 mph - N/A   Scattered Clouds
3:54 PM 82.4 °F 86.3 °F 69.8 °F 66% 30.16 in 10.0 mi East 5.8 mph - N/A   Scattered Clouds
4:14 PM 84.2 °F 88.4 °F 69.8 °F 62% 30.16 in 10.0 mi ESE 8.1 mph - N/A   Scattered Clouds
4:34 PM 82.4 °F 86.3 °F 69.8 °F 66% 30.16 in 10.0 mi East 8.1 mph - N/A   Scattered Clouds
4:53 PM 82.4 °F 86.3 °F 69.8 °F 66% 30.15 in 10.0 mi East 9.2 mph - N/A   Scattered Clouds
5:14 PM 82.4 °F 86.3 °F 69.8 °F 66% 30.15 in 10.0 mi East 10.4 mph - N/A   Clear
5:34 PM 82.4 °F 86.3 °F 69.8 °F 66% 30.15 in 10.0 mi East 6.9 mph - N/A   Clear
5:53 PM 82.4 °F 86.3 °F 69.8 °F 66% 30.15 in 10.0 mi East 9.2 mph - N/A   Clear
6:14 PM 80.6 °F 83.9 °F 69.8 °F 70% 30.14 in 10.0 mi ESE 10.4 mph - N/A   Clear
6:34 PM 80.6 °F 83.9 °F 69.8 °F 70% 30.14 in 10.0 mi ESE 11.5 mph - N/A   Clear
6:54 PM 78.8 °F - 69.8 °F 74% 30.14 in 10.0 mi East 8.1 mph - N/A   Clear
7:14 PM 78.8 °F - 69.8 °F 74% 30.14 in 10.0 mi ESE 5.8 mph - N/A   Clear
7:33 PM 77.0 °F - 69.8 °F 78% 30.14 in 10.0 mi ESE 6.9 mph - N/A   Clear
7:54 PM 75.2 °F - 69.8 °F 83% 30.14 in 10.0 mi East 8.1 mph - N/A   Clear
8:14 PM 75.2 °F - 69.8 °F 83% 30.14 in 10.0 mi ESE 9.2 mph - N/A   Clear
8:33 PM 73.4 °F - 69.8 °F 88% 30.14 in 10.0 mi ESE 9.2 mph - N/A   Clear
8:54 PM 73.4 °F - 69.8 °F 88% 30.15 in 10.0 mi ESE 6.9 mph - N/A   Clear
9:14 PM 73.4 °F - 69.8 °F 88% 30.15 in 10.0 mi ESE 6.9 mph - N/A   Clear
9:33 PM 71.6 °F - 69.8 °F 94% 30.15 in 10.0 mi ESE 8.1 mph - N/A   Clear
9:54 PM 71.6 °F - 69.8 °F 94% 30.14 in 10.0 mi SE 6.9 mph - N/A   Clear
10:13 PM 71.6 °F - 69.8 °F 94% 30.14 in 10.0 mi SE 6.9 mph - N/A   Clear
10:34 PM 71.6 °F - 69.8 °F 94% 30.14 in 10.0 mi SE 6.9 mph - N/A   Clear
10:54 PM 71.6 °F - 69.8 °F 94% 30.14 in 10.0 mi SE 5.8 mph - N/A   Clear
11:13 PM 71.6 °F - 69.8 °F 94% 30.14 in 10.0 mi SE 5.8 mph - N/A   Clear
11:34 PM 71.6 °F - 69.8 °F 94% 30.13 in 10.0 mi SSE 5.8 mph - N/A   Clear
11:54 PM 71.6 °F - 69.8 °F 94% 30.13 in 10.0 mi SE 6.9 mph - N/A   Clear